AirNav   Phillips 66 Aviation Fuel
 
 439 users online  

Y96 Leo E Goetz County Airport
Onaway, Michigan, USA

GOING TO ONAWAY?


FAA INFORMATION EFFECTIVE 24 MAY 2018

Location

FAA Identifier: Y96
Lat/Long: 45-22-15.0430N / 084-13-30.0520W
45-22.250717N / 084-13.500867W
45.3708453 / -84.2250144
(estimated)
Elevation: 830 ft. / 253 m (estimated)
Variation: 06W (1985)
From city: 1 mile N of ONAWAY, MI
Time zone: UTC -4 (UTC -5 during Standard Time)
Zip code: 49765

Airport Operations

Airport use: Open to the public
Activation date: 04/1940
Control tower: no
ARTCC: MINNEAPOLIS CENTER
FSS: LANSING FLIGHT SERVICE STATION
NOTAMs facility: LAN (NOTAM-D service available)
Attendance: UNATNDD
Wind indicator: yes
Segmented circle: yes

Airport Communications

CTAF: 122.9
WX AWOS-3 at PZQ (18 nm E): 118.125 (989-734-7419)

Nearby radio navigation aids

VOR radial/distance  VOR name  Freq  Var
PLNr136/24.2PELLSTON VORTAC111.8006W
GLRr049/29.5GAYLORD VOR/DME109.2006W
APNr308/33.1ALPENA VORTAC108.8007W

Airport Services

Parking: tiedowns
Airframe service: NONE
Powerplant service: NONE
Bottled oxygen: NONE
Bulk oxygen: NONE

Runway Information

Runway 15/33

Dimensions: 2600 x 60 ft. / 792 x 18 m
Surface: asphalt/L
Operational restrictions: RY 15/33 CLSD NOV-APR & WHEN SNOW COVERED. NO SNOW REMOVAL.
RUNWAY 15  RUNWAY 33
Latitude: 45-22.133333N45-21.762833N
Longitude: 084-13.566667W084-13.263167W
Elevation: 830.0 ft.830.0 ft.
Traffic pattern: leftleft
Markings: basic, in fair conditionbasic, in fair condition
Obstructions: 16 ft. road, 525 ft. from runway, 177 ft. right of centerline, 20:1 slope to clear40 ft. trees, 201 ft. from runway, 120 ft. left of centerline
25 FT TREES, 0-400 FT DSTC, 120 FT L.

Runway 3/21

Dimensions: 1400 x 100 ft. / 427 x 30 m
Surface: turf, in fair condition
EXTENSIVE PAVEMENT CRACKING.
Runway edge markings: RY 3/21 MARKED WITH 3 FT YELLOW CONES.
Operational restrictions: RY 03/21, CLSD NOV-APR & WHEN SNOW COVERED. NO SNOW REMOVAL.
RUNWAY 3  RUNWAY 21
Traffic pattern: leftleft
Obstructions: 41 ft. trees, 396 ft. from runway, 110 ft. right of centerline, 9:1 slope to clear36 ft. trees, 120 ft. from runway, 100 ft. right of centerline, 3:1 slope to clear

Airport Ownership and Management from official FAA records

Ownership: Publicly-owned
Owner: PRESQUE ISLE COUNTY
657 S. BRADLEY HWY
ROGERS CITY, MI 49779
Phone 989-734-4309
Manager: MICHAEL T JERMEAY
657 S. BRADLEY HWY
ROGERS CITY, MI 49779
Phone 989-464-6887

Airport Operational Statistics

Aircraft operations: 200/year *
50% transient general aviation
50% local general aviation
* for 12-month period ending 31 December 2014

Additional Remarks

RANDOM 10-20 FT. BRUSH & TREES IN PRIM SFC.
RY 15, 11 FT POWERLINE 750 FT FM THLD 125 FT R OF CNTRLN. RY 33 14 FT POWERLINE, 676 FT FM THLD, APCH RATIO 34:1.

Instrument Procedures

There are no published instrument procedures at Y96.

Some nearby airports with instrument procedures:

KPZQ - Presque Isle County Airport (18 nm E)
KSLH - Cheboygan County Airport (21 nm NW)
6Y1 - Bois Blanc Island Airport (26 nm NW)
KPLN - Pellston Regional Airport of Emmet County (27 nm NW)
KMGN - Harbor Springs Airport (29 nm W)
 
Loc | Ops | Rwys | IFR | FBO | Links
Com | Nav | Svcs | Stats | Notes

AirNav Hotels Sweepstakes
 
Area around Y96 (Leo E Goetz County Airport)
 
Road maps at: MapQuest Bing Google
 
Aerial photo
No photo
 
Sectional chart

 
Airport distance calculator
Flying to Leo E Goetz County Airport? Find the distance to fly.

From to Y96

Sunrise and sunset
Times for 26-May-2018
 Local
(UTC-4)
 Zulu
(UTC)
Morning civil twilight05:2109:21
Sunrise05:5709:57
Sunset21:1101:11
Evening civil twilight21:4701:47

Current date and time
Zulu (UTC)  26-May-2018 11:00:51
Local (UTC-4)  26-May-2018 07:00:51
 
METAR
KPZQ 
18nm E 
261035Z AUTO 16005KT 10SM OVC120 15/14 A2977 RMK AO2 T01530135
KSLH 
21nm NW 
261035Z AUTO 00000KT 7SM SCT120 13/13 A2974 RMK AO2 T01370131
KPLN 
27nm NW 
260954Z AUTO 09005KT 10SM BKN110 16/15 A2974 RMK AO2 SLP067 T01610150
KGLR 
29nm SW 
261053Z AUTO 07004KT 10SM CLR 18/13 A2976 RMK AO2 SLP070 T01830128 $
KMGN 
29nm W 
261035Z AUTO 09005KT 10SM CLR 16/15 A2974 RMK AO2 T01680152
KAPN 
33nm SE 
261054Z AUTO 09003KT 10SM CLR 17/16 A2977 RMK AO2 SLP076 T01670156
KMCD 
33nm NW 
261035Z AUTO 12010G15KT 5SM BR CLR 16/16 A2973 RMK AO2 T01600160
TAF
KPLN 
27nm NW 
260539Z 2606/2706 20004KT 6SM -SHRA BKN060 FM260900 24004KT P6SM BKN045 FM261500 24006KT P6SM VCSH BKN050 FM261700 25005KT P6SM FEW040 SCT070 FM270000 36004KT P6SM BKN070
KAPN 
33nm SE 
260539Z 2606/2706 00000KT P6SM BKN140 FM261000 00000KT P6SM VCSH BKN050 FM261300 VRB03KT P6SM BKN050 FM261800 15005KT P6SM VCTS BKN040CB FM270000 10004KT P6SM SCT070 FM270400 00000KT P6SM SCT005
NOTAMs
Click for the latest NOTAMs
NOTAMs are issued by the DoD/FAA and will open in a separate window not controlled by AirNav.

 

 
 

Would you like to see your business listed on this page?

 If your business provides an interesting product or service to pilots, flight crews, aircraft, or users of the Leo E Goetz County Airport, you should consider listing it here.  To start the listing process, click on the button below
 
Add a business
 

Other Pages about Leo E Goetz County Airport

www.presqueislecounty.org/airport.html
Page from the Michigan Airport Directory (PDF)
 
Update a link
 
Copyright © AirNav, LLC. All rights reserved. Privacy Policy  Contact